Weather History for KTLH - January, 2014

Change the Weather History Date:

Sunday, January 26, 2014

  Actual Average Record
Temperature  
Mean Temperature 47 °F 52 °F  
Max Temperature 62 °F 64 °F 80 °F (1948)
Min Temperature 32 °F 39 °F 17 °F (1905)
Degree Days  
Heating Degree Days 18    
Month to date heating degree days 425  
Since 1 July heating degree days 824  
Cooling Degree Days 0    
Month to date cooling degree days 2  
Year to date cooling degree days 2  
Moisture  
Dew Point 35 °F    
Average Humidity 63    
Maximum Humidity 93    
Minimum Humidity 32    
Precipitation  
Precipitation 0.00 in 0.15 in 3.05 in (2004)
Month to date precipitation 3.04 3.55  
Year to date precipitation 3.04 3.55  
Sea Level Pressure  
Sea Level Pressure 30.03 in    
Wind  
Wind Speed 2 mph (SSE)    
Max Wind Speed 10 mph    
Max Gust Speed 22 mph    
Visibility 4 miles    
Events Fog    
T = Trace of Precipitation, MM = Missing Value Source: NWS Daily Summary

Daily Weather History Graph

Daily Weather History Graph

Search for Another Location

Airport or City:

Trip Planner

Search our weather history database for the weather conditions in past years. The results will help you decide how hot, cold, wet, or windy it might be!

Date:

Astronomy

Jan. 26, 2014 Rise Set
Actual Time 7:31 AM EST 6:08 PM EST
Civil Twilight 7:06 AM EST 6:34 PM EST
Nautical Twilight 6:37 AM EST 7:03 PM EST
Astronomical Twilight 6:08 AM EST 7:31 PM EST
Moon 3:06 AM EST (1/26) 1:59 PM EST (1/26)
Length of Visible Light 11h 28m
Length of Day
10h 37m
Waning Crescent, 24% of the Moon is Illuminated
Jan 26
Waning Crescent
Jan 30
New
Feb 6
First Quarter
Feb 14
Full
Feb 22
Last Quarter

Hourly Weather History & Observations

Time (EST) Temp. Windchill Dew Point Humidity Pressure Visibility Wind Dir Wind Speed Gust Speed Precip Events Conditions
12:02 AM 39.2 °F - 37.4 °F 93% 30.05 in 0.5 mi Calm Calm - N/A Fog Fog
12:11 AM 39.2 °F - 37.4 °F 93% 30.05 in 0.2 mi Calm Calm - N/A Fog Fog
12:21 AM 41.0 °F - 37.4 °F 87% 30.05 in 0.5 mi Calm Calm - N/A Fog Fog
12:30 AM 39.2 °F - 37.4 °F 93% 30.05 in 0.2 mi Calm Calm - N/A Fog Fog
12:39 AM 39.2 °F - 37.4 °F 93% 30.04 in 0.8 mi Calm Calm - N/A   Mist
12:42 AM 39.2 °F - 37.4 °F 93% 30.04 in 1.0 mi Calm Calm - N/A   Mist
12:53 AM 39.9 °F - 37.0 °F 89% 30.04 in 1.5 mi Calm Calm - N/A   Mostly Cloudy
1:10 AM 39.2 °F - 35.6 °F 87% 30.04 in 0.2 mi Calm Calm - N/A Fog Fog
1:31 AM 37.4 °F - 35.6 °F 93% 30.04 in 0.5 mi Calm Calm - N/A Fog Fog
1:44 AM 37.4 °F - 35.6 °F 93% 30.04 in 0.2 mi Calm Calm - N/A Fog Fog
1:53 AM 37.9 °F - 35.1 °F 89% 30.04 in 0.2 mi Calm Calm - N/A Fog Fog
2:05 AM 37.4 °F - 35.6 °F 93% 30.04 in 0.5 mi Calm Calm - N/A Fog Fog
2:13 AM 37.4 °F - 35.6 °F 93% 30.03 in 0.2 mi Calm Calm - N/A Fog Fog
2:31 AM 37.4 °F - 33.8 °F 87% 30.03 in 0.5 mi Calm Calm - N/A Fog Fog
2:53 AM 36.0 °F - 33.1 °F 89% 30.03 in 0.2 mi Calm Calm - N/A Fog Fog
3:02 AM 35.6 °F - 33.8 °F 93% 30.04 in 0.5 mi Calm Calm - N/A Fog Fog
3:27 AM 35.6 °F - 33.8 °F 93% 30.03 in 2.0 mi Calm Calm - N/A   Mostly Cloudy
3:29 AM 35.6 °F - 33.8 °F 93% 30.03 in 3.0 mi Calm Calm - N/A   Scattered Clouds
3:53 AM 35.1 °F - 30.9 °F 85% 30.03 in 10.0 mi Calm Calm - N/A   Partly Cloudy
4:05 AM 33.8 °F - 30.2 °F 87% 30.04 in 10.0 mi Calm Calm - N/A   Mostly Cloudy
4:53 AM 34.0 °F - 30.9 °F 89% 30.04 in 10.0 mi Calm Calm - N/A   Overcast
5:06 AM 33.8 °F - 30.2 °F 87% 30.04 in 1.5 mi Calm Calm - N/A   Overcast
5:14 AM 33.8 °F - 30.2 °F 87% 30.04 in 0.2 mi Calm Calm - N/A Fog Fog
5:36 AM 33.8 °F - 30.2 °F 87% 30.05 in 0.5 mi North - - N/A Fog Fog
5:46 AM 33.8 °F - 30.2 °F 87% 30.05 in 0.2 mi Calm Calm - N/A Fog Fog
5:53 AM 34.0 °F - 30.9 °F 89% 30.05 in 0.2 mi Calm Calm - N/A Fog Fog
6:53 AM 33.1 °F - 30.0 °F 89% 30.06 in 0.2 mi Calm Calm - N/A Fog Fog
7:26 AM 33.8 °F 29.6 °F 30.2 °F 87% 30.05 in 0.8 mi NNW 4.6 mph - N/A   Mostly Cloudy
7:42 AM 35.6 °F - 33.8 °F 93% 30.05 in 1.5 mi Calm Calm - N/A   Mostly Cloudy
7:53 AM 36.0 °F - 33.1 °F 89% 30.06 in 2.0 mi Calm Calm - N/A   Scattered Clouds
8:17 AM 35.6 °F - 32.0 °F 87% 30.06 in 3.0 mi Calm Calm - N/A   Scattered Clouds
8:53 AM 37.9 °F - 35.1 °F 89% 30.06 in 6.0 mi Calm Calm - N/A   Overcast
9:53 AM 45.0 °F - 39.9 °F 82% 30.09 in 10.0 mi Calm Calm - N/A   Overcast
10:53 AM 51.1 °F - 41.0 °F 68% 30.09 in 10.0 mi East 3.5 mph - N/A   Overcast
11:53 AM 57.0 °F - 33.1 °F 40% 30.08 in 10.0 mi South 4.6 mph - N/A   Overcast
12:53 PM 60.1 °F - 30.0 °F 32% 30.05 in 10.0 mi Variable 6.9 mph - N/A   Mostly Cloudy
1:53 PM 61.0 °F - 30.0 °F 31% 30.01 in 10.0 mi Variable 5.8 mph - N/A   Mostly Cloudy
2:53 PM 60.1 °F - 30.9 °F 33% 29.99 in 10.0 mi SW 5.8 mph - N/A   Mostly Cloudy
3:53 PM 60.1 °F - 30.0 °F 32% 29.98 in 10.0 mi South 8.1 mph - N/A   Mostly Cloudy
4:53 PM 59.0 °F - 32.0 °F 36% 29.97 in 10.0 mi SSE 6.9 mph - N/A   Mostly Cloudy
5:53 PM 55.9 °F - 36.0 °F 47% 29.96 in 10.0 mi SSE 8.1 mph - N/A   Mostly Cloudy
6:53 PM 52.0 °F - 37.9 °F 59% 29.99 in 10.0 mi Calm Calm - N/A   Scattered Clouds
7:53 PM 51.1 °F - 43.0 °F 74% 29.99 in 10.0 mi Calm Calm - N/A   Partly Cloudy
8:53 PM 50.0 °F - 42.1 °F 74% 29.99 in 10.0 mi Calm Calm - N/A   Partly Cloudy
9:53 PM 48.0 °F - 42.1 °F 80% 29.99 in 10.0 mi Calm Calm - N/A   Mostly Cloudy
10:53 PM 48.0 °F - 42.1 °F 80% 29.99 in 10.0 mi Calm Calm - N/A   Mostly Cloudy
11:53 PM 45.0 °F - 39.9 °F 82% 29.99 in 10.0 mi Calm Calm - N/A   Clear